Location: Caltech
(34.1382°N, 118.1253°W)
Time: 16:17:20
(UTC-07:00)

Gurwin Techsat 1B - Visible Passes

Search period start: 25 April 2015 00:00
Search period end: 05 May 2015 00:00
Orbit: 812 x 815 km, 98.5° (Epoch: 25 April)

Date Brightness Start Highest point End Pass type
(mag) Time Alt. Az. Time Alt. Az. Time Alt. Az.
25 Apr 10.3 02:40:21 10° NE 02:43:56 28° ENE 02:43:56 28° ENE visible
25 Apr 9.6 04:20:18 10° NNW 04:24:50 28° WNW 04:25:09 28° WNW visible
26 Apr 10.9 02:18:35 10° NE 02:21:01 17° E 02:21:01 17° E visible
26 Apr 8.9 03:57:09 10° N 04:02:14 47° WNW 04:02:14 47° WNW visible
27 Apr 8.5 03:34:16 10° N 03:39:19 76° NW 03:39:19 76° NW visible
28 Apr 9.0 03:11:35 10° NNE 03:16:25 60° ENE 03:16:25 60° ENE visible
28 Apr 10.4 04:53:31 10° NNW 04:56:23 14° WNW 04:57:38 13° W visible
29 Apr 9.8 02:49:11 10° NNE 02:53:29 36° E 02:53:29 36° E visible
29 Apr 9.8 04:29:39 10° NNW 04:33:51 23° WNW 04:34:43 22° W visible
30 Apr 10.6 02:27:10 10° NE 02:30:34 21° E 02:30:34 21° E visible
30 Apr 9.2 04:06:22 10° N 04:11:16 38° WNW 04:11:47 37° W visible
01 May 11.1 02:06:02 10° ENE 02:07:39 12° E 02:07:39 12° E visible
01 May 8.6 03:43:22 10° N 03:48:38 64° WNW 03:48:52 63° W visible
02 May 8.6 03:20:37 10° NNE 03:25:56 78° E 03:25:57 78° ESE visible
02 May 10.6 05:03:31 10° NW 05:05:21 11° WNW 05:06:50 10° W visible
03 May 9.4 02:58:05 10° NNE 03:03:01 45° E 03:03:01 45° E visible
03 May 10.1 04:39:05 10° NNW 04:42:51 19° WNW 04:44:14 17° W visible
04 May 10.2 02:35:53 10° NE 02:40:05 27° E 02:40:05 27° E visible
04 May 9.5 04:15:37 10° N 04:20:17 31° WNW 04:21:18 29° W visible
